Saturday, 22 March 2014

Working with IBM n3240 Data ONTAP Release 8.1.1

Verifying Disks Owners
Fas1>disk show
  DISK       OWNER                      POOL   SERIAL NUMBER         HOME 
------------ -------------              -----  -------------         ------------- 
0a.02.7      F92(1888560663)    Pool0  S0SPN6AC805679        F92(1888560663)
0a.02.9      F92(1888560663)    Pool0  S0SPN6AC805681        F92(1888560663)
0a.02.6      F92(1888560663)    Pool0  S0SPN6AC805615        F92(1888560663)
0a.02.8      F92(1888560663)    Pool0  S0SPN6AC802520        F92(1888560663)
0a.02.11     F92(1888560663)    Pool0  S0SPN6AC805664        F92(1888560663)
0a.02.10     F92(1888560663)    Pool0  S0SPN6AC805682        F92(1888560663)
0a.01.14     F92(1888560663)    Pool0  J1YL2USN              F92(1888560663)
0a.01.17     F92(1888560663)    Pool0  J1YL2UEN              F92(1888560663)
0a.01.15     F92(1888560663)    Pool0  J1YL2TEN              F92(1888560663)
0a.01.20     F92(1888560663)    Pool0  J1YR1WDN              F92(1888560663)
0a.01.13     F92(1888560663)    Pool0  J1YL2TKN              F92(1888560663)
0a.01.18     F92(1888560663)    Pool0  J1YM98KN              F92(1888560663)
0a.01.23     F92(1888560663)    Pool0  J1YMKT7N              F92(1888560663)
0a.01.16     F92(1888560663)    Pool0  J1YL2UPN              F92(1888560663)
0a.01.12     F92(1888560663)    Pool0  J1YL2T0N              F92(1888560663)
0a.01.19     F92(1888560663)    Pool0  J1YLY0MN              F92(1888560663)
0a.01.22     F92(1888560663)    Pool0  J1YPS9UN              F92(1888560663)
0a.01.21     F92(1888560663)    Pool0  J1YR1WJN              F92(1888560663)
0a.02.13     F90(1888550771)    Pool0  N10JAMDL              F90(1888550771)
0a.01.3      F90(1888550771)    Pool0  J1YDAN9N              F90(1888550771)
0a.01.2      F90(1888550771)    Pool0  J1Y7SEYN              F90(1888550771)
0a.01.0      F90(1888550771)    Pool0  J1YDGLMN              F90(1888550771)
0a.01.7      F90(1888550771)    Pool0  J1YDB1BN              F90(1888550771)
0a.01.1      F90(1888550771)    Pool0  J1YDD4EN              F90(1888550771)
0a.01.9      F90(1888550771)    Pool0  J1Y9PKHN              F90(1888550771)
0a.02.17     F90(1888550771)    Pool0  N10L86ML              F90(1888550771)
0a.01.8      F90(1888550771)    Pool0  J1YDAKTN              F90(1888550771)
0a.01.5      F90(1888550771)    Pool0  J1Y9XJ9N              F90(1888550771)
0a.01.10     F90(1888550771)    Pool0  J1YEM51N              F90(1888550771)
0a.01.4      F90(1888550771)    Pool0  J1Y9YLLN              F90(1888550771)
0a.01.6      F90(1888550771)    Pool0  J1YDH1MN              F90(1888550771)
0a.01.11     F90(1888550771)    Pool0  J1YDEPRN              F90(1888550771)
0a.02.15     F90(1888550771)    Pool0  N10L1HTL              F90(1888550771)
0a.02.23     F90(1888550771)    Pool0  N10JKENL              F90(1888550771)
0a.02.18     F90(1888550771)    Pool0  N10KSVUL              F90(1888550771)
0a.02.22     F90(1888550771)    Pool0  N10KAB4L              F90(1888550771)
0a.02.21     F90(1888550771)    Pool0  N10KU6YL              F90(1888550771)
0a.02.12     F90(1888550771)    Pool0  N10L87EL              F90(1888550771)
0a.02.16     F90(1888550771)    Pool0  N10L8D6L              F90(1888550771)
0a.02.20     F90(1888550771)    Pool0  N10L060L              F90(1888550771)
0a.02.19     F90(1888550771)    Pool0  N10H35KL              F90(1888550771)
0a.02.14     F90(1888550771)    Pool0  N10L0NYL              F90(1888550771)
0a.02.2      F90(1888550771)    Pool0  S0SPN6AC803398        F90(1888550771)
0a.02.0      F90(1888550771)    Pool0  S0SPN6AC805327        F90(1888550771)
0a.02.1      F90(1888550771)    Pool0  S0SPN6AC805616        F90(1888550771)
0a.02.4      F90(1888550771)    Pool0  S0SPN6AC806074        F90(1888550771)
0a.02.5      F90(1888550771)    Pool0  S0SPN6AC805626        F90(1888550771)
0a.02.3      F90(1888550771)    Pool0  S0SPN6AC805665        F90(1888550771)

Querying Ethernet and FC interfaces
F90> ifconfig -a
e0a: flags=0x1f4c867<UP,BROADCAST,RUNNING,MULTICAST,TCPCKSUM> mtu 1500
                inet 192.168.162.90 netmask 0xfffffff0 broadcast 192.168.162.95
                ether 00:a0:98:31:d5:34 (auto-1000t-fd-up) flowcontrol full
e0b: flags=0x1f4c867<UP,BROADCAST,RUNNING,MULTICAST,TCPCKSUM> mtu 1500
                inet 192.168.162.91 netmask 0xfffffff0 broadcast 192.168.162.95
                ether 00:a0:98:31:d5:35 (auto-1000t-fd-up) flowcontrol full
e0c: flags=0x170c866<BROADCAST,RUNNING,MULTICAST,TCPCKSUM> mtu 1500
                ether 00:a0:98:31:d5:36 (auto-unknown-down) flowcontrol full
e0d: flags=0x1f4c867<UP,BROADCAST,RUNNING,MULTICAST,TCPCKSUM> mtu 1500
                inet 192.168.163.90 netmask 0xfffffff0 broadcast 192.168.163.95
                ether 00:a0:98:31:d5:37 (auto-1000t-fd-up) flowcontrol full
e0M: flags=0x230c866<BROADCAST,RUNNING,MULTICAST,TCPCKSUM,MGMT_PORT> mtu 1500
                ether 00:a0:98:31:d5:39 (auto-unknown-down) flowcontrol full
e0P: flags=0x2b4c867<UP,BROADCAST,RUNNING,MULTICAST,TCPCKSUM,ACP_PORT> mtu 1500 PRIVATE
                inet 192.168.0.37 netmask 0xfffffc00 broadcast 192.168.3.255 noddns
                ether 00:a0:98:31:d5:38 (auto-100tx-fd-up) flowcontrol full
lo: flags=0x1b48049<UP,LOOPBACK,RUNNING,MULTICAST,TCPCKSUM> mtu 8160
                inet 127.0.0.1 netmask 0xff000000 broadcast 127.0.0.1
                ether 00:00:00:00:00:00 (VIA Provider)
losk: flags=0x40a400c9<UP,LOOPBACK,RUNNING> mtu 9188
                inet 127.0.20.1 netmask 0xff000000 broadcast 127.0.20.1
F90> fcp config
1a:   ONLINE <ADAPTER UP>  PTP  Fabric 
        host address 010000
        portname 50:0a:09:81:90:20:ff:73  nodename 50:0a:09:80:80:20:ff:73
        mediatype auto speed auto

1b:   ONLINE <ADAPTER UP>  PTP  Fabric 
        host address 010000
        portname 50:0a:09:82:90:20:ff:73  nodename 50:0a:09:80:80:20:ff:73
        mediatype auto speed auto

RAID and Aggregate configuration
f90> sysconfig -r
Aggregate aggr01 (online, raid_dp, hybrid) (block checksums)
  Plex /aggr01/plex0 (online, normal, active)
    RAID group /aggr01/plex0/rg0 (normal, block checksums)

      RAID Disk       Device                  HA  SHELF BAY CHAN Pool Type  RPM  Used (MB/blks)    Phys (MB/blks)
      ---------           ------      ------------- ---- ---- ---- ----- --------------    --------------
      dparity            0a.02.12               0a    2   12  SA:A   -  BSAS  7200 847555/1735794176 847884/1736466816
      parity              0a.02.13               0a    2   13  SA:A   -  BSAS  7200 847555/1735794176 847884/1736466816
      data                 0a.02.14               0a    2   14  SA:A   -  BSAS  7200 847555/1735794176 847884/1736466816
      data                 0a.02.15               0a    2   15  SA:A   -  BSAS  7200 847555/1735794176 847884/1736466816
      data                 0a.02.16               0a    2   16  SA:A   -  BSAS  7200 847555/1735794176 847884/1736466816
      data                 0a.02.17               0a    2   17  SA:A   -  BSAS  7200 847555/1735794176 847884/1736466816
      data                 0a.02.18               0a    2   18  SA:A   -  BSAS  7200 847555/1735794176 847884/1736466816
      data                 0a.02.19               0a    2   19  SA:A   -  BSAS  7200 847555/1735794176 847884/1736466816
      data                 0a.02.20               0a    2   20  SA:A   -  BSAS  7200 847555/1735794176 847884/1736466816
      data                 0a.02.21               0a    2   21  SA:A   -  BSAS  7200 847555/1735794176 847884/1736466816

    RAID group /aggr01/plex0/rg1 (normal, block checksums)

      RAID Disk       Device                  HA  SHELF BAY CHAN Pool Type  RPM  Used (MB/blks)    Phys (MB/blks)
      ---------           ------      ------------- ---- ---- ---- ----- --------------    --------------
      dparity            0a.02.1 0a    2   1   SA:A   -   SSD   N/A 95146/194859520   95396/195371568
      parity              0a.02.2 0a    2   2   SA:A   -   SSD   N/A 95146/194859520   95396/195371568
      data                 0a.02.3 0a    2   3   SA:A   -   SSD   N/A 95146/194859520   95396/195371568
      data                 0a.02.4 0a    2   4   SA:A   -   SSD   N/A 95146/194859520   95396/195371568
      data                 0a.02.5 0a    2   5   SA:A   -   SSD   N/A 95146/194859520   95396/195371568

Aggregate aggr0 (online, raid_dp) (block checksums)
  Plex /aggr0/plex0 (online, normal, active)
    RAID group /aggr0/plex0/rg0 (normal, block checksums)

      RAID Disk       Device                  HA  SHELF BAY CHAN Pool Type  RPM  Used (MB/blks)    Phys (MB/blks)
      ---------           ------      ------------- ---- ---- ---- ----- --------------    --------------
      dparity            0a.01.0 0a    1   0   SA:A   -   SAS 15000 418000/856064000  420584/861357448
      parity              0a.01.1 0a    1   1   SA:A   -   SAS 15000 418000/856064000  420584/861357448
      data                 0a.01.2 0a    1   2   SA:A   -   SAS 15000 418000/856064000  420584/861357448
      data                 0a.01.3 0a    1   3   SA:A   -   SAS 15000 418000/856064000  420584/861357448
      data                 0a.01.4 0a    1   4   SA:A   -   SAS 15000 418000/856064000  420584/861357448
      data                 0a.01.5 0a    1   5   SA:A   -   SAS 15000 418000/856064000  420584/861357448
      data                 0a.01.6 0a    1   6   SA:A   -   SAS 15000 418000/856064000  420584/861357448
      data                 0a.01.7 0a    1   7   SA:A   -   SAS 15000 418000/856064000  420584/861357448
      data                 0a.01.8 0a    1   8   SA:A   -   SAS 15000 418000/856064000  420584/861357448
      data                 0a.01.9 0a    1   9   SA:A   -   SAS 15000 418000/856064000  420584/861357448
      data                 0a.01.10               0a    1   10  SA:A   -   SAS 15000 418000/856064000  420584/861357448


Spare disks

RAID Disk             Device                  HA  SHELF BAY CHAN Pool Type  RPM  Used (MB/blks)    Phys (MB/blks)
--------- ------      ------------- ---- ---- ---- ----- --------------    --------------
Spare disks for block checksum
spare     0a.01.11               0a    1   11  SA:A   -   SAS 15000 418000/856064000  420584/861357448
spare     0a.02.22               0a    2   22  SA:A   -  BSAS  7200 847555/1735794176 847884/1736466816
spare     0a.02.23               0a    2   23  SA:A   -  BSAS  7200 847555/1735794176 847884/1736466816
spare     0a.02.0 0a    2   0   SA:A   -   SSD   N/A 95146/194859520   95396/195371568

Partner disks

RAID Disk             Device                  HA  SHELF BAY CHAN Pool Type  RPM  Used (MB/blks)    Phys (MB/blks)
--------- ------      ------------- ---- ---- ---- ----- --------------    --------------
partner                 0a.01.13               0a    1   13  SA:A   -   SAS 15000 0/0               420584/861357448
partner                 0a.01.12               0a    1   12  SA:A   -   SAS 15000 0/0               420584/861357448
partner                 0a.01.18               0a    1   18  SA:A   -   SAS 15000 0/0               420584/861357448
partner                 0a.01.16               0a    1   16  SA:A   -   SAS 15000 0/0               420584/861357448
partner                 0a.01.17               0a    1   17  SA:A   -   SAS 15000 0/0               420584/861357448
partner                 0a.01.15               0a    1   15  SA:A   -   SAS 15000 0/0               420584/861357448
partner                 0a.01.20               0a    1   20  SA:A   -   SAS 15000 0/0               420584/861357448
partner                 0a.01.14               0a    1   14  SA:A   -   SAS 15000 0/0               420584/861357448
partner                 0a.01.23               0a    1   23  SA:A   -   SAS 15000 0/0               420584/861357448
partner                 0a.01.21               0a    1   21  SA:A   -   SAS 15000 0/0               420584/861357448
partner                 0a.01.22               0a    1   22  SA:A   -   SAS 15000 0/0               420584/861357448
partner                 0a.01.19               0a    1   19  SA:A   -   SAS 15000 0/0               420584/861357448
partner                 0a.02.11               0a    2   11  SA:A   -   SSD   N/A 0/0               95396/195371568
partner                 0a.02.9 0a    2   9   SA:A   -   SSD   N/A 0/0               95396/195371568
partner                 0a.02.10               0a    2   10  SA:A   -   SSD   N/A 0/0               95396/195371568
partner                 0a.02.8 0a    2   8   SA:A   -   SSD   N/A 0/0               95396/195371568
partner                 0a.02.7 0a    2   7   SA:A   -   SSD   N/A 0/0               95396/195371568
partner                 0a.02.6 0a    2   6   SA:A   -   SSD   N/A 0/0               95396/195371568

NFS shares
f90> rdfile /etc/exports
#Auto-generated by setup Wed Jul 10 00:51:37 GMT 2013
/vol/vol0              -sec=sys,rw,anon=0,nosuid
/vol/vol_xyz_sas_90_0_01          -sec=sys,rw,nosuid
/vol/vol0/home                -sec=sys,rw,nosuid
/vol/vol_nfs_xyz_view_90_0_01              -sec=sys,rw,nosuid
/vol/vol_nfs_xyz_JJ_90_0_01    -sec=sys,rw,nosuid
/vol/vol_nfs_xyz_lpump_90_0_01          -sec=sys,rw,nosuid
/vol/vol_nfs_xyz_ppumps_90_0_01       -sec=sys,rw,nosuid
/vol/vol_cifs_xyz_J_90_0_01     -sec=sys,rw,nosuid

After complete configuration of host connectivity you can obtain full WWN information, switches, zoning and port numbers by “fcp topology show” command.